Regional Weather Roundup
Issued by NWS

Home | Current Version | Previous Version | Graphics & Text | Print | Product List | Glossary On
Versions: 1 2 3 4 5 6 7 8 9 10 11 12 13 14 15 16 17 18 19 20 21 22 23 24 25 26 27 28 29 30 31 32 33 34 35 36 37 38 39 40 41 42 43 44 45 46 47 48 49 50
000
ASUS43 KLOT 020100
RWRIL

ILLINOIS REGIONAL WEATHER ROUNDUP
NATIONAL WEATHER SERVICE CHICAGO/ROMEOVILLE IL
800 PM CDT SAT AUG 01 2015

NOTE: "FAIR" INDICATES FEW OR NO CLOUDS BELOW 12,000 FEET WITH NO
SIGNIFICANT WEATHER AND/OR OBSTRUCTIONS TO VISIBILITY.

* THESE STATIONS ARE NOT UNDER NWS QUALITY CONTROL. THEY ALSO MAY NOT
  REPORT WEATHER SUCH AS PRECIPITATION OR FOG.

ILZ001-002-007-009-015-016-024-020200-
NORTHWEST ILLINOIS

CITY           SKY/WX    TMP DP  RH WIND       PRES   REMARKS
MOLINE         MOCLDY    78  69  73 S6        29.91F HX  80
STERLING*      MOCLDY    79  66  65 W5        29.89S HX  81
$$

ILZ003-004-008-010-011-017-018-020200-
NORTH CENTRAL ILLINOIS

CITY           SKY/WX    TMP DP  RH WIND       PRES   REMARKS
ROCKFORD       MOCLDY    79  65  62 SW8       29.91S HX  81
$$

ILZ005-006-012>014-019>023-020200-
NORTHEAST ILLINOIS

CITY           SKY/WX    TMP DP  RH WIND       PRES   REMARKS
CHICAGO-OHARE  MOCLDY    81  61  50 W13       29.89S HX  82
CHICAGO-MIDWAY MOCLDY    83  61  47 SW15      29.89S HX  83
AURORA         MOCLDY    77  64  64 SW9       29.91S
WAUKEGAN       CLEAR     79  64  60 CALM      29.87R HX  81
DUPAGE AIRPORT PTCLDY    78  62  57 SW10      29.90S HX  80
WHEELING       PTCLDY    82  61  48 W8        29.89S HX  83
NORTHERLY ISL    N/A     82  59  45 W6          N/A  HX  82
$$

LMZ740>746-020200-
SOUTHERN LAKE MICHIGAN

STATION/POSITION SKY/WX   TEMP    WIND        PRES    VSBY  WAVE
                          AIR SEA DIR/SP/G                  HT/PER
                          (F)     (DEG/KT/KT) (MB)    (MI)  (FT/S)
HARRISON CRIB              82     250/ 17/ 20   N/A
BURNHAM HARBOR             83     250/ 11/ 16   N/A
CALUMET HARBOR             83     230/ 10/ 17   N/A
BURNS HARBOR               83     230/ 12/ 17 1012.9S
MICHIGAN CITY              79     220/  7/  8   N/A
MICHIGAN CITY 6N           79 75  240/  6/  8   N/A           1
ST. JOSEPH                 77 75  190/  4/  4   N/A           1/ 4
$$

ILZ025>027-034>036-040-047-049-050-058-095>099-020200-
WEST-CENTRAL ILLINOIS

CITY           SKY/WX    TMP DP  RH WIND       PRES   REMARKS
QUINCY         CLEAR     82  71  69 S6        29.95F HX  86
MACOMB*        MOCLDY    79  72  78 S3        29.97S HX  82
$$

ILZ028>032-037-038-041>044-048-051>054-059>061-020200-
CENTRAL ILLINOIS

CITY           SKY/WX    TMP DP  RH WIND       PRES   REMARKS
DECATUR        CLEAR     78  62  57 SW7       29.97F HX  80
PEORIA         PTCLDY    81  63  54 SW7       29.95S HX  82
SPRINGFIELD    PTCLDY    78  65  63 SW5       29.96F HX  80
TAYLORVILLE    NOT AVBL
$$

ILZ033-039-045-046-055>057-062-063-020200-
EAST-CENTRAL ILLINOIS

CITY           SKY/WX    TMP DP  RH WIND       PRES   REMARKS
CHAMPAIGN      CLEAR     74  67  78 SW5       29.97S
MATTOON        CLEAR     77  62  59 SW5       29.97S
$$

ILZ079-100>102-020200-
SOUTHWEST ILLINOIS

CITY           SKY/WX    TMP DP  RH WIND       PRES   REMARKS
CAHOKIA*       CLOUDY    82  68  62 S3        29.96S HX  85
$$

ILZ064>066-069>071-074>076-080>082-084>086-088>090-092>094-020200-
SOUTH-CENTRAL ILLINOIS

CITY           SKY/WX    TMP DP  RH WIND       PRES   REMARKS
CARBONDALE     MOCLDY    79  73  82 E5        29.97F HX  82
MT. VERNON     PTCLDY    75  64  69 CALM      29.98F
SALEM*         PTCLDY    78  69  74 CALM      29.98S HX  80
$$

ILZ067-068-072-073-078-083-087-091-020200-
SOUTHEAST ILLINOIS

CITY           SKY/WX    TMP DP  RH WIND       PRES   REMARKS
LAWRENCEVILLE  CLEAR     75  65  70 SW3       29.98S
HARRISBURG*    PTCLDY    77  69  76 CALM      29.99S HAZE
$$

ABBREVIATIONS USED IN REMARKS
   TC - TEMPERATURE IN CELSIUS
  WCI - WIND CHILL INDEX
   HX - HEAT INDEX
  VSB - VISIBILITY
$$



USA.gov is the U.S. government's official web portal to all federal, state and local government web resources and services.